GRBBeta
1 60237U 24128C   26113.52431649  .00002870  00000-0  20495-3 0  9992
2 60237  61.9910  47.9837 0047343 123.0571 237.5082 15.06186166 98031
Curium One
1 60242U 24128H   26113.48053741  .00006005  00000-0  35549-3 0  9996
2 60242  61.9801  39.4034 0047104 119.4446 241.1362 15.11614783 98181
ROBUSTA-3A
1 60243U 24128J   26113.21685995  .00005836  00000-0  35340-3 0  9990
2 60243  61.9877  42.5091 0048099 116.9567 243.6453 15.10794944 98111
CatSat
1 60246U 24125J   26112.69105208  .00034482  00000-0  54718-3 0  9994
2 60246  97.2153 324.7035 0024455  32.0242 328.2492 15.52943204 98769
HYPERVIEW-1G (RS66S)
1 61772U 24199AP  26113.55506928  .00066639  00000-0  68536-3 0  9992
2 61772  97.2983 350.9942 0009536 113.9605 246.2654 15.64618328126106
AO-123
1 61781U 24199AY  26113.54597311  .00005925  00000-0  17706-3 0  9991
2 61781  97.3078 342.7189 0015242 139.7189 220.5187 15.34850914125547
JINJUSat 1B
1 63210U 25052A   26112.97575816  .00012067  00000-0  39575-3 0  9994
2 63210  97.4057   9.7132 0001250 302.7829  57.3292 15.31765094 61643
NUSHSAT 1
1 63211U 25052B   26112.96990887  .00014622  00000-0  44924-3 0  9996
2 63211  97.4033  10.1013 0001110 320.8413  39.2749 15.33810271 61676
TEVEL2-4
1 63213U 25052D   26112.98268066  .00013665  00000-0  43545-3 0  9991
2 63213  97.3957   9.3479 0001434   6.1785 353.9474 15.32660073 61654
TEVEL2-5
1 63214U 25052E   26113.51983947  .00013465  00000-0  43086-3 0  9992
2 63214  97.3955   9.8470 0001364   3.9880 356.1372 15.32529782 61734
TEVEL2-6
1 63215U 25052F   26113.13906447  .00012798  00000-0  41031-3 0  9997
2 63215  97.3962   9.4519 0001483   1.5137 358.6109 15.32480223 61678
TEVEL2-1
1 63217U 25052H   26113.21553427  .00012181  00000-0  39639-3 0  9991
2 63217  97.3931   9.2143 0002110  13.6243 346.5055 15.32013473 61672
TEVEL2-3
1 63218U 25052J   26112.23223368  .00013463  00000-0  43751-3 0  9995
2 63218  97.3933   8.2480 0002281  16.6569 343.4747 15.32032376 61522
TEVEL2-2
1 63219U 25052K   26112.95482301  .00012230  00000-0  39798-3 0  9996
2 63219  97.3932   8.9556 0002174  13.9994 346.1308 15.32011205 61639
TEVEL2-9
1 63237U 25052AD  26113.25609778  .00011668  00000-0  40168-3 0  9996
2 63237  97.3995   8.7437 0005784 357.2449   2.8759 15.30191396 61626
TEVEL2-7
1 63238U 25052AE  26113.22184378  .00010974  00000-0  38089-3 0  9996
2 63238  97.3997   8.6471 0005848 358.0184   2.1032 15.29938376 61613
TEVEL2-8
1 63239U 25052AF  26112.96784861  .00011672  00000-0  40524-3 0  9993
2 63239  97.3996   8.3729 0005946 359.6372   0.4863 15.29913194 61570
HYDRA-W
1 63490U 25052BL  26112.26439385  .02130398  41366-2  26477-2 0  9994
2 63490  97.3739  16.4004 0007524 180.8298 179.2974 16.08789288 62061
HADES-ICM (SO-125)
1 63492U 25052BN  26113.00451105  .00258100  00000-0  16999-2 0  9999
2 63492  97.3828  15.5989 0003136 107.3006 252.8602 15.74907674 62070
SPIRONE
1 66657U 25274H   26113.24669315  .00001319  00000-0  13123-3 0  9996
2 66657  97.7467  43.3385 0011664 189.8617 170.2376 14.93312919 22020
K-HERO
1 66660U 25274L   26113.53484187  .00001374  00000-0  13492-3 0  9994
2 66660  97.7474  43.7427 0013475 194.4408 165.6428 14.93746535 22071
SNUGLITE-III DURI
1 66661U 25274M   26113.52449823  .00000874  00000-0  87625-4 0  9996
2 66661  97.7472  43.7508 0014053 196.0203 164.0574 14.93810366 22073
SilverSat
1 66909U 98067XV  26113.44966717  .07226154  12288-4  11979-2 0  9998
2 66909  51.6027 190.0749 0007952 333.4666  26.5949 16.32457272 22308
SAKHACUBE-CHOLBON
1 67290U 25313AU  26113.47946364  .00007228  00000-0  30228-3 0  9991
2 67290  97.3945 189.2368 0009784 179.5284 180.5964 15.23848041 17641
RS95S (QMR-KWT-2)
1 67291U 25313AV  26112.72248098  .00009022  00000-0  36609-3 0  9991
2 67291  97.3943 188.5688 0009607 180.7107 179.4119 15.24794132 17538
Ten-Koh2
1 68261U 25241B   26112.52266350  .00006000  00000-0  26413-3 0  9993
2 68261  51.6455 224.4447 0005382 324.0341  36.0273 15.23169309  6425
JACK-002
1 68417U 26067B   26113.15724192  .00005747  00000-0  28038-3 0  9998
2 68417  97.4531  72.4736 0004075 100.1815 259.9879 15.18677850  3592
DISCO 2
1 68431U 26067R   26113.09850495  .00006196  00000-0  30592-3 0  9990
2 68431  97.4567  72.4110 0002949 140.5981 219.5468 15.18234851  3588
HADES-SA (SpinnyONE)
1 68446U 26067AG  26112.85416558  .00012694  00000-0  64184-3 0  9991
2 68446  97.4377  72.0733 0004570 266.6907  93.3803 15.17172883  3531
PARUS-6U1
1 68456U 26067AS  26113.11833852  .00004231  00000-0  21799-3 0  9995
2 68456  97.4515  72.3698 0003786 248.1925 111.8905 15.16919284  3589
SAL-E
1 68458U 26067AU  26113.11858992  .00005806  00000-0  29762-3 0  9996
2 68458  97.4442  72.3486 0003853 263.0016  97.0779 15.16944272  3586
IO-86
1 40931U          25360.30710720  .00000000  00000-0  12800-3 0    00
2 40931   6.0006 332.5373 0012733 338.8432   8.1437 14.79075515    01
LILIUM-4
1 71922C 26067AC  26089.50133053 -.00014632  00000+0 -74472-3 0    04
2 71922  97.4497  49.1617 0004341   5.9603 355.7042 15.16896692    16
